Tracking 19634 objects as of 22-May-2019
HD Live streaming from Space Station
objects crossing your sky now

SSU 1

Track SSU 1 now!
10-day predictions
SSU 1 is classified as:


NORAD ID: 8835
Int'l Code: 1976-038C
Perigee: 492.6 km
Apogee: 1,443.7 km
Inclination: 63.3 °
Period: 104.3 minutes
Semi major axis: 7339 km
RCS: Unknown
Launch date: April 30, 1976
Source: United States (US)
Launch site: AIR FORCE WESTERN TEST RANGE (AFWTR)
aabbcc
Your satellite tracking list
Your tracking list is empty




NASA's NSSDC Master Catalog

Two Line Element Set (TLE):
1  8835U 76038C   19141.24511872  .00000079  00000-0  42869-4 0  9993
2  8835  63.3248 177.4254 0648003 145.0727 219.4681 13.80810887  1803
Source of the keplerian elements: McCants